Regional Weather Roundup
Issued by NWS Bismarck, ND

Home | Current Version | Previous Version | Text Only | Print | Product List | Glossary On
Versions: 1 2 3 4 5 6 7 8 9 10 11 12 13 14 15 16 17 18 19 20 21 22 23 24 25 26 27 28 29 30 31 32 33 34 35 36 37 38 39 40 41 42 43 44 45 46 47 48 49 50
000
ASUS43 KBIS 280610
RWRBIS

NWR BROADCAST TEXT
NATIONAL WEATHER SERVICE BISMARCK ND
100 AM CDT SAT MAY 28 2016

NOTE: "FAIR" INDICATES FEW OR NO CLOUDS BELOW 12,000 FEET WITH NO
SIGNIFICANT WEATHER AND/OR OBSTRUCTIONS TO VISIBILITY.


CITY           SKY/WX    TMP DP  RH WIND       PRES   REMARKS
WILLISTON      CLOUDY    56  53  90 N7        29.86S
MINOT          CLOUDY    58  54  86 N9        29.87S
MINOT AFB      CLOUDY    56  53  89 NE9       29.87S
BISMARCK       CLOUDY    55  51  86 CALM      29.84R
DICKINSON      CLEAR     50  45  83 E7        29.84R
GARRISON         N/A     57  55  93 E9        29.85R
HETTINGER ARPT CLEAR     45  41  86 CALM      29.87R
JAMESTOWN      CLOUDY    61  56  83 N7        29.80R
BEACH          FAIR      48  48 100 CALM      29.88R
CARRINGTON     FAIR      57  55  94 N6        29.85R FOG
HAZEN          CLOUDY    50  50 100 CALM      29.87R
LINTON           N/A     54  54 100 CALM        N/A
MANDAN         CLOUDY    57  50  77 CALM      29.86R
OAKES            N/A    N/A N/A N/A MISG        N/A
RUGBY          CLOUDY    55  55 100 NE15      29.86S
STANLEY        CLOUDY    54  54 100 NE7G17    29.90S
WATFORD CITY   CLOUDY    55  55 100 E7        29.86S
$$

CITY           SKY/WX    TMP DP  RH WIND       PRES   REMARKS
GRAND FORKS    CLOUDY    63  58  83 SE12      29.80R
GRAND FORKS AF CLOUDY    62  61  96 N9        29.80R
DEVILS LAKE    CLOUDY    58  55  90 NE14      29.84S
FARGO          MOCLDY    62  57  83 SE7       29.80R
CAVALIER       CLOUDY    59  57  94 N12       29.83S
GRAFTON        FAIR      59  59 100 N8G15     29.83R
GWINNER        CLOUDY    61  59  94 E6        29.80F
LANGDON        CLOUDY    57  57 100 N13       29.86S
ROLLA          CLOUDY    52  52 100 NE13      29.89F
WALHALLA       FAIR      57  57 100 N13       29.85S
$$

CITY           SKY/WX    TMP DP  RH WIND       PRES   REMARKS
ABERDEEN       LGT RAIN  60  58  92 N6        29.80R
MOBRIDGE       MOCLDY    58  53  84 N3        29.80R
BUFFALO          N/A     50  44  80 SE7       29.81R
RAPID CITY     CLEAR     46  43  89 NW3       29.86S
GLASGOW        CLOUDY    56  50  80 E9        29.83S
SIDNEY         CLEAR     54  50  87 N7        29.85S
WOLF POINT     CLEAR     52  49  89 E6        29.86R
GLENDIVE       PTCLDY    55  48  76 N5        29.88R
MILES CITY     CLOUDY    53  49  86 NW8       29.84S
BAKER          CLEAR     44  40  85 S5        29.86R
$$

CITY           SKY/WX    TMP DP  RH WIND       PRES   REMARKS
BILLINGS       CLOUDY    51  48  89 SW6       29.91R
GREAT FALLS    CLOUDY    51  42  71 S3        29.94R
REGINA         CLEAR     54  50  87 E10       29.92S
ESTEVAN        CLOUDY    54  52  94 E13G20    29.90S
$$





USA.gov is the U.S. government's official web portal to all federal, state and local government web resources and services.